Location: Ladrillo (historical)
(32.8195°N, 117.2231°W)
Time: 00:31:47
(UTC+00:00)

Courier 1B - Pass Details

Date: 16 March 2021
Orbit: 963 x 1209 km, 28.3° (Epoch: 15 April)

Event Time Altitude Azimuth Distance (km) Brightness Sun altitude
Rises 08:00:40 0° 209° (SSW) 4,072 - -58.8°
Reaches altitude 10° 08:04:35 10° 192° (SSW) 3,082 - -58.7°
Maximum altitude 08:09:27 18° 152° (SSE) 2,476 - -58.7°
Drops below altitude 10° 08:14:10 10° 112° (ESE) 2,985 - -58.5°
Sets 08:17:51 0° 94° (E) 3,896 - -58.4°
